This is the latest recevied weather packets stored in our database for station/object K3HW. If no packets are shown the sender has not sent any weather packets the latest 10 day(s).
| Time | Temp. | Humidity | Pressure | Rain* | Wind** | Luminosity | Snow |
|---|---|---|---|---|---|---|---|
| 1778084671 | 16.67° C | 89% | 1011.6 hPa | 0 mm | - | 166 W/m² | - |
| 1778084367 | 16.11° C | 89% | 1011.8 hPa | 0 mm | - | 121 W/m² | - |
| 1778084066 | 16.11° C | 89% | 1012.1 hPa | 1.78 mm | - | 66 W/m² | - |
| 1778083763 | 16.11° C | 89% | 1012.5 hPa | 1.78 mm | - | 76 W/m² | - |
| 1778083460 | 16.11° C | 89% | 1012.6 hPa | 1.27 mm | - | 63 W/m² | - |
| 1778083158 | 16.11° C | 89% | 1012.9 hPa | 1.27 mm | - | 61 W/m² | - |
| 1778082855 | 16.11° C | 89% | 1013 hPa | 3.05 mm | - | 69 W/m² | - |
| 1778081731 | 16.11° C | 87% | 1013 hPa | 4.83 mm | - | 15 W/m² | - |
| 1778081428 | 16.11° C | 86% | 1013 hPa | 4.83 mm | - | 20 W/m² | - |
| 1778081125 | 16.67° C | 85% | 1012.8 hPa | 3.05 mm | - | 19 W/m² | - |
| 1778080824 | 16.67° C | 85% | 1012.7 hPa | 3.05 mm | - | 22 W/m² | - |
| 1778080521 | 16.67° C | 85% | 1013.1 hPa | 3.05 mm | - | 27 W/m² | - |
| 1778080218 | 16.67° C | 84% | 1013.1 hPa | 1.27 mm | - | 35 W/m² | - |
| 1778079914 | 16.67° C | 84% | 1013 hPa | 1.27 mm | - | 52 W/m² | - |
| 1778079611 | 16.67° C | 84% | 1012.9 hPa | 0 mm | - | 51 W/m² | - |
| 1778079308 | 17.22° C | 85% | 1012.9 hPa | 1.78 mm | - | 55 W/m² | - |
| 1778079005 | 17.22° C | 84% | 1012.9 hPa | 3.05 mm | - | 70 W/m² | - |
| 1778078702 | 16.67° C | 83% | 1012.9 hPa | 1.27 mm | - | 62 W/m² | - |
| 1778078400 | 17.22° C | 82% | 1012.9 hPa | 3.05 mm | - | 49 W/m² | - |
| 1778078097 | 17.22° C | 82% | 1012.9 hPa | 3.05 mm | - | 31 W/m² | - |
| 1778077795 | 17.78° C | 81% | 1012.9 hPa | 1.27 mm | - | 25 W/m² | - |
| 1778077493 | 17.78° C | 77% | 1012.9 hPa | 0 mm | - | 24 W/m² | - |
| 1778077190 | 17.78° C | 75% | 1012.9 hPa | 0 mm | - | 25 W/m² | - |
| 1778076888 | 18.33° C | 74% | 1013 hPa | 0 mm | - | 32 W/m² | - |
| 1778076586 | 18.33° C | 74% | 1012.8 hPa | 0 mm | - | 29 W/m² | - |
* Rain latest hour (hover to see other rain measurements)
** Current wind speed in m/s (hover to see current wind gust speed)